Regional Weather Roundup
Issued by NWS State College, PA

Home | Current Version | Previous Version | Text Only | Print | Product List | Glossary On
Versions: 1 2 3 4 5 6 7 8 9 10 11 12 13 14 15 16 17 18 19 20 21 22 23 24 25 26 27 28 29 30 31 32 33 34 35 36 37 38 39 40 41 42 43 44 45 46 47 48 49 50
000
ASUS41 KCTP 200203
RWRCTP

REGIONAL WEATHER ROUNDUP
NATIONAL WEATHER SERVICE STATE COLLEGE PA
1000 PM EDT SUN OCT 19 2014

Note: "fair" indicates few or no clouds below 12,000 feet with no
significant weather and/or obstructions to visibility.

* = STATION THAT DOES NOT REPORT PRECIPITATION /E.G. RAIN...SNOW...ETC/
    THUNDER OR FOG.

PAZ002>004-007>009-013>016-020>023-029>032-200300-
WESTERN PENNSYLVANIA

CITY           SKY/WX    TMP DP  RH WIND       PRES   REMARKS
ERIE           MOCLDY    44  36  73 S7        30.05F
MEADVILLE      MOCLDY    42  33  70 S5        30.04F
FRANKLIN*      MOCLDY    39  30  70 SW5       30.06F
NEW CASTLE       N/A     39  36  89 CALM      30.08F
BEAVER COUNTY  NOT AVBL
BUTLER*        MOCLDY    39  30  70 CALM      30.09S
PITTSBURGH INT CLOUDY    43  35  73 CALM      30.07F
PITTSBURGH     MOCLDY    46  30  53 S7        30.07F
INDIANA*       CLEAR     39  34  81 CALM      30.11F
LATROBE        CLEAR     39  36  87 CALM      30.10S
WASHINGTON CO* MOCLDY    36  30  80 CALM      30.10S
$$

PAZ004>006-010>012-017>019-024>028-033>037-041-042-045-046-049>053-200300-
CENTRAL PENNSYLVANIA

CITY           SKY/WX    TMP DP  RH WIND       PRES   REMARKS
BRADFORD       MOCLDY    32  28  85 CALM      30.03F
DUBOIS         MOCLDY    38  31  76 SW5       30.05S
CLEARFIELD     MOCLDY    39  32  76 SW3       30.07S
JOHNSTOWN      PTCLDY    41  29  62 SW6       30.06F
ALTOONA        MOCLDY    40  33  76 W7        30.07F
STATE COLLEGE  MOCLDY    42  32  67 CALM      30.06F
WILLIAMSPORT   PTCLDY    39  30  70 CALM      30.07R
SELINSGROVE    PTCLDY    38  34  85 CALM      30.08R
FT INDIANTOWN  PTCLDY    38  37  99 NW2       30.07S
CAPITAL CITY   MOCLDY    48  31  51 W7        30.07S
HARRISBURG     MOCLDY    48  32  53 NW6       30.07S
YORK           MOCLDY    44  32  62 W3        30.08S
$$

PAZ038>040-043-044-047-048-054-055-060>062-067>071-200300-
EASTERN PENNSYLVANIA

CITY           SKY/WX    TMP DP  RH WIND       PRES   REMARKS
SCRANTON       MOCLDY    36  28  73 SE3       30.06S
MOUNT POCONO   PTCLDY    33  26  75 NW8       30.02S
ALLENTOWN      CLEAR     42  26  53 CALM      30.08R
QUAKERTOWN*    CLEAR     36  32  87 CALM      30.08R
READING        PTCLDY    40  34  79 CALM      30.07R
LANCASTER      MOCLDY    42  33  70 W3        30.07S
COATESVILLE    PTCLDY    43  30  61 NW5       30.07R
POTTSTOWN      CLEAR     39  30  70 CALM      30.09R
BLUE BELL      CLEAR     37  34  87 CALM      30.07R
DOYLESTOWN     CLEAR     39  30  70 N3        30.07R
WILLOW GROVE   NOT AVBL
NORTH PHILA    CLEAR     43  29  57 NW3       30.09R
PHILADELPHIA   CLEAR     51  28  41 NW3       30.08S
$$


USA.gov is the U.S. government's official web portal to all federal, state and local government web resources and services.